Flag for Canada Weather past 2 weeks in Greater Sudbury, Ontario, Canada

Now
55 °F

Fog.


Feels Like: 52 °F
Forecast: 54 / 62 °F
Wind: 14 mph from South

Location: Sudbury

Current Time: Oct 2, 2014 at 10:32:19 AM

Latest Report: Oct 2, 2014 at 9:00 AM


Visibility: 0 mi

Pressure: 30.09 "Hg

Humidity: 100%

Dew point: 55 °F

Location of Greater SudburyLocation

Historic Weather in Greater Sudbury — Graph

°F

Greater Sudbury temperature yesterday

Maximum temperature yesterday: 54 °F (at 5:00 PM)
Minimum temperature yesterday: 45 °F (at 12:00 AM)
Average temperature yesterday: 49 °F

Past Weeks' High & Low Weather Summary

 TemperatureHumidityPressure
High79 °F (Sep 28, 4:00 PM)100% (Sep 17, 1:00 PM)30.50 "Hg (Sep 17, 1:00 PM)
Low30 °F (Sep 19, 7:00 AM)44% (Sep 27, 1:00 PM)29.60 "Hg (Sep 21, 3:00 AM)
Average51 °F87%30.13 "Hg
* Reported Sep 17 9:00 AM — Oct 2 9:00 AM, Greater Sudbury, Weather by CustomWeather, © 2014

Note: Actual official high and low records may vary slightly from our data, if they occured in-between our weather recording intervals... More about our weather records

Advertising

Greater Sudbury weather history for previous 24 hours

 ConditionsComfort  
Time TempWeatherWind HumidityBarometerVisibility
9:00 AM
Oct 2
55 °FFog.14 mph100%30.09 "Hg1 mi
8:00 AM55 °FFog.8 mph100%30.09 "Hg1 mi
7:00 AM55 °FFog.8 mph100%30.08 "Hg1 mi
6:00 AM55 °FFog.8 mph100%30.07 "Hg1 mi
5:00 AM54 °FFog.8 mph100%30.08 "Hg1 mi
4:00 AM54 °FFog.7 mph100%30.09 "Hg1 mi
2:00 AM54 °FFog.7 mph100%30.11 "Hg1 mi
1:00 AM54 °FFog.6 mph100%30.11 "Hg1 mi
12:52 AM54 °FFog.7 mph100%30.11 "Hg1 mi
12:00 AM54 °FFog.7 mph100%30.11 "Hg1 mi
11:00 PM
Oct 1
54 °FDrizzle. Fog.6 mph100%30.12 "Hg1 mi
10:00 PM52 °FDrizzle. Fog.3 mph100%30.12 "Hg1 mi
9:00 PM52 °FDrizzle. Fog.5 mph100%30.13 "Hg2 mi
8:00 PM52 °FDrizzle. Fog.3 mph100%30.12 "Hg3 mi
7:00 PM52 °FDrizzle. Fog.7 mph100%30.13 "Hg2 mi
6:00 PM52 °FDrizzle. Fog.8 mph100%30.12 "Hg2 mi
5:00 PM54 °FLow clouds.8 mph94%30.12 "Hg8 mi
4:03 PM52 °FLow clouds.6 mph100%30.14 "Hg8 mi
3:00 PM52 °FLow clouds.6 mph100%30.14 "Hg15 mi
2:00 PM52 °FLow clouds.No wind94%30.16 "Hg20 mi
1:00 PM52 °FLow clouds.2 mph94%30.16 "Hg20 mi
12:00 PM50 °FLow clouds.5 mph100%30.16 "Hg10 mi
11:00 AM50 °FDrizzle. Fog.7 mph100%30.16 "Hg3 mi
10:00 AM48 °FDrizzle. Fog.6 mph100%30.17 "Hg1 mi
Weather by CustomWeather, © 2014

See weather overviewHow to use our weather pages